Location: Colonia Mina de C?rbuni
(46.1667°N, 22.7167°E)
Time: 21:23:23
(UTC+00:00)

Tiros 1 - Pass Details

Date: 19 April 2024
Orbit: 624 x 657 km, 48.4° (Epoch: 28 May)

Event Time Altitude Azimuth Distance (km) Brightness Sun altitude
Rises 04:52:15 0° 288° (WNW) 2,906 9.9 12.3°
Reaches altitude 10° 04:54:44 10° 279° (W) 1,995 9.1 12.7°
Maximum altitude 04:58:51 33° 215° (SW) 1,041 8.1 13.4°
Drops below altitude 10° 05:02:57 10° 151° (SSE) 1,989 10.1 14.1°
Sets 05:05:25 0° 142° (SE) 2,895 11.0 14.6°
